Location: Cherryland
(37.6794°N, 122.1033°W)
Time: 14:52:45
(UTC+00:00)

KORONAS-FOTON - Pass Details

Date: 14 December 2025
Orbit: 433 x 448 km, 82.4° (Epoch: 17 January)

Event Time Altitude Azimuth Distance (km) Brightness Sun altitude
Rises 14:16:57 0° 354° (N) 2,416 6.9 -11.4°
Reaches altitude 10° 14:19:00 10° 356° (N) 1,544 6.0 -11.0°
Maximum altitude 14:22:21 74° 81° (E) 455 3.6 -10.4°
Drops below altitude 10° 14:25:41 10° 169° (SSE) 1,535 6.7 -9.8°
Sets 14:27:44 0° 171° (S) 2,400 7.7 -9.4°
